Regional Weather Roundup
Issued by NWS

Home | Current Version | Previous Version | Text Only | Print | Product List | Glossary On
Versions: 1 2 3 4 5 6 7 8 9 10 11 12 13 14 15 16 17 18 19 20 21 22 23 24 25 26 27 28 29 30 31 32 33 34 35 36 37 38 39 40 41 42 43 44 45 46 47 48 49 50
149
ASUS43 KTOP 282208
RWRKS

WEATHER ROUNDUP FOR KANSAS
NATIONAL WEATHER SERVICE GOODLAND KS
500 PM CDT SAT MAY 28 2016

NOTE:  "FAIR" INDICATES FEW OR NO CLOUDS BELOW 12,000 FEET WITH NO
SIGNIFICANT WEATHER AND/OR OBSTRUCTIONS TO VISIBILITY.

KSZ001>006-013>018-027>032-041>047-282300-
NORTHWEST KANSAS

CITY           SKY/WX    TMP DP  RH WIND       PRES   REMARKS
GOODLAND       SUNNY     76  45  33 VRB6      29.98F
HAYS           SUNNY     77  52  41 NW8       29.95S
HILL CITY      MOSUNNY   78  49  35 SW6       29.94S
RUSSELL        MOSUNNY   74  54  49 NW6       29.93S
$$

KSZ061>065-074>080-084>089-282300-
SOUTHWEST KANSAS

CITY           SKY/WX    TMP DP  RH WIND       PRES   REMARKS
DODGE CITY     SUNNY     77  47  34 CALM      29.97F
ELKHART          N/A     78  46  32 S10         N/A
GARDEN CITY    SUNNY     78  42  27 W9        29.98S
GREAT BEND     MOSUNNY   75  54  46 W7        29.95S
LIBERAL        MOSUNNY   81  45  28 W3        29.99F
PRATT          SUNNY     76  50  40 NW9       29.96S
$$

KSZ066>073-081>083-090>101-282300-
SOUTHEAST KANSAS

CITY           SKY/WX    TMP DP  RH WIND       PRES   REMARKS
CHANUTE        MOSUNNY   79  60  52 SW9       29.94R
COFFEYVILLE    MOSUNNY   79  60  52 VRB6      29.94R
HUTCHINSON     MOSUNNY   77  56  48 NW5       29.94S
MEDICINE LODGE   N/A     84  48  28 VRB6      29.94S
NEWTON         MOSUNNY   77  55  47 W3          N/A
PARSONS        MOSUNNY   80  60  50 SW9       29.95S
WICHITA INTL   MOSUNNY   82  54  37 CALM      29.93S
WICHITA JABRA  SUNNY     80  54  40 NW6       29.94S
WICHITA MCCONL SUNNY     79  55  43 W3        29.94S
WINFIELD       SUNNY     81  57  43 W7        29.95S
$$

KSZ007>012-019>026-033>040-048>060-102>105-282300-
NORTHEAST KANSAS

CITY           SKY/WX    TMP DP  RH WIND       PRES   REMARKS
CONCORDIA      MOSUNNY   76  54  46 W9        29.91S
EMPORIA        MOSUNNY   77  59  53 SW12      29.93S
LAWRENCE       MOSUNNY   77  59  53 W12       29.91S
MANHATTAN      MOSUNNY   76  57  51 VRB7      29.91R
MARYSVILLE     MOSUNNY   77  59  53 W12G17    29.89S
OLATHE IND     PTSUNNY   75  57  53 W12       29.93R
OLATHE EXE     PTSUNNY   73  57  57 SW8       29.93R
SALINA         MOSUNNY   79  56  45 W9        29.93S
TOPEKA BILLARD PTSUNNY   76  58  53 W8        29.91R
TOPEKA FORBES  PTSUNNY   77  59  53 SW10      29.92R
$$




USA.gov is the U.S. government's official web portal to all federal, state and local government web resources and services.